Flag for Syria Weather past 2 weeks in Damascus, Syria

Now
55 °F

Clear.


Feels Like: 51 °F
Forecast: 48 / 92 °F
Wind: 16 mph from West

Location: Damascus Int. Airport


UV Index: 7 (High)

Visibility: 10 mi


Pressure: 29.86 "Hg

Humidity: 59%

Dew point: 41 °F

Location of DamascusLocation

Historic Weather in Damascus

°F

Damascus temperature yesterday

Maximum temperature yesterday: 88 °F (at 3:00 PM)
Minimum temperature yesterday: 46 °F (at 6:00 PM)
Average temperature yesterday: 70 °F

Past Weeks' High & Low Weather Summary

 TemperatureHumidityPressure
High88 °F (Apr 6, 3:00 PM)93% (Apr 4, 4:00 AM)30.21 "Hg (Apr 4, 4:00 AM)
Low37 °F (Apr 11, 6:00 AM)11% (Apr 7, 3:00 PM)29.77 "Hg (Apr 17, 2:00 PM)
Average63 °F44%29.99 "Hg
* Reported Apr 3 3:00 AM — Apr 18 3:00 AM, Damascus, Weather by CustomWeather, © 2014

Note: Actual official high and low records may vary slightly from our data, if they occured in-between our weather recording intervals... More about our weather records

Advertising

Historic Weather Conditions — Data for Previous 24 hours

 ConditionsComfort  
Time TempWeatherWind HumidityBarometerVisibility
3:00 AM
Apr 18
57 °FClear.14 mph59%29.86 "Hg10 mi
2:00 AM59 °FClear.14 mph55%29.86 "Hg10 mi
1:00 AM61 °FClear.12 mph52%29.89 "Hg10 mi
12:00 AM64 °FClear.21 mph46%29.89 "Hg10 mi
11:00 PM
Apr 17
66 °FClear.21 mph35%29.89 "Hg10 mi
10:00 PM68 °FClear.14 mph33%29.86 "Hg10 mi
9:00 PM68 °FClear.7 mph35%29.86 "Hg10 mi
8:00 PM73 °FPassing clouds.5 mph36%29.83 "HgN/A
7:00 PM77 °FPassing clouds.12 mph28%29.80 "HgN/A
6:00 PM46 °FPassing clouds.25 mph87%29.77 "HgN/A
5:00 PM84 °FPassing clouds.23 mph23%29.77 "HgN/A
4:00 PM88 °FPassing clouds.28 mph21%29.77 "HgN/A
3:00 PM88 °FPassing clouds.14 mph22%29.77 "HgN/A
2:00 PM86 °FSunny.12 mph24%29.77 "Hg10 mi
1:00 PM86 °FSunny.5 mph24%29.80 "Hg10 mi
12:00 PM82 °FSunny.5 mph28%29.83 "Hg10 mi
11:00 AM79 °FSunny.5 mph30%29.83 "Hg10 mi
10:00 AM59 °FSunny.12 mph55%29.83 "Hg10 mi
9:00 AM73 °FSunny.2 mph36%29.86 "Hg10 mi
8:00 AM66 °FSunny.12 mph46%29.86 "Hg10 mi
7:00 AM61 °FClear.9 mph52%29.86 "Hg10 mi
6:00 AM57 °FClear.9 mph59%29.86 "Hg10 mi
5:00 AM57 °FClear.5 mph63%29.86 "Hg10 mi
4:00 AM63 °FClear.9 mph45%29.89 "Hg10 mi
Weather by CustomWeather, © 2014

See weather overview